Regional Weather Roundup
Issued by NWS

Home | Current Version | Previous Version | Graphics & Text | Print | Product List | Glossary On
Versions: 1 2 3 4 5 6 7 8 9 10 11 12 13 14 15 16 17 18 19 20 21 22 23 24 25 26 27 28 29 30 31 32 33 34 35 36 37 38 39 40 41 42 43 44 45 46 47 48 49 50
000
ASUS43 KLMK 311402
RWRKY
KENTUCKY REGIONAL WEATHER ROUNDUP
NATIONAL WEATHER SERVICE LOUISVILLE KY
1000 AM EDT TUE MAY 31 2016

NOTE "FAIR" INDICATES FEW OR NO CLOUDS BELOW 12,000 FEET
WITH NO SIGNIFICANT WEATHER AND/OR OBSTRUCTIONS TO VISIBILITY.

KYZ001>023-026-027-061>063-070>075-311500-
WESTERN AND SOUTH CENTRAL KENTUCKY

CITY           SKY/WX    TMP DP  RH WIND       PRES   REMARKS
PADUCAH        MOSUNNY   75  67  76 CALM      29.97S
HENDERSON      CLOUDY    73  63  68 E5        29.97S
OWENSBORO      CLOUDY    79  64  59 SE8       30.00R
HOPKINSVILLE   NOT AVBL
BOWLING GREEN  CLOUDY    76  66  71 NE3       30.00S
GLASGOW        NOT AVBL
$$

KYZ024-025-028>034-038-045-046-053-311500-
NORTH CENTRAL KENTUCKY

CITY           SKY/WX    TMP DP  RH WIND       PRES   REMARKS
LOUISVILLE/SDF CLOUDY    78  61  55 E3        30.01S
LOUISVILLE/LOU MOSUNNY   79  63  57 CALM      30.02S
FORT KNOX      NOT AVBL
$$

KYZ035>037-039>044-047>052-055>060-089>105-311500-
NORTHEAST KENTUCKY

CITY           SKY/WX    TMP DP  RH WIND       PRES   REMARKS
LEXINGTON      SUNNY     79  63  57 CALM      30.04R
COVINGTON      PTSUNNY   81  59  47 CALM      30.02S
FRANKFORT      SUNNY     79  63  57 CALM      30.02S
$$

KYZ054-064>069-076>088-106>120-311500-
SOUTHEAST KENTUCKY

CITY           SKY/WX    TMP DP  RH WIND       PRES   REMARKS
JACKSON        SUNNY     73  62  68 CALM      30.05S
LONDON         SUNNY     75  63  66 E6        30.05R
SOMERSET       NOT AVBL
MIDDLESBORO    CLOUDY    67  64  91 CALM      30.05S
MONTICELLO     MOSUNNY   76  67  73 W6        30.05R
$$





USA.gov is the U.S. government's official web portal to all federal, state and local government web resources and services.